Location: Bonny Doon Airfield
(37.0704°N, 122.1252°W)
Time: 01:06:16
(UTC-08:00)

Vanguard 1 Rocket - Pass Details

Date: 22 October 2017
Orbit: 655 x 4222 km, 34.3° (Epoch: 21 November)

Event Time Altitude Azimuth Distance (km) Brightness Sun altitude
Rises 13:28:56 0° 266° (W) 2,966 10.2 40.9°
Reaches altitude 10° 13:31:55 10° 243° (WSW) 2,089 9.9 40.7°
Maximum altitude 13:34:42 16° 204° (SSW) 1,850 10.4 40.6°
Drops below altitude 10° 13:37:55 10° 167° (SSE) 2,469 10.6 40.4°
Sets 13:42:00 0° 147° (SSE) 3,852 11.1 40.2°
